International Falls, MN

5:58 PM CDT on October 19, 2017 (GMT -0500)
Falls International

Weather History for KINL - August, 2013

Change the Weather History Date:

Saturday, August 24, 2013

  Actual Average Record
Temperature  
Mean Temperature 73 °F 62 °F  
Max Temperature 86 °F 74 °F 92 °F (1948)
Min Temperature 60 °F 50 °F 31 °F (1908)
Degree Days  
Heating Degree Days 0 4  
Month to date heating degree days 135 72  
Since 1 June heating degree days 389 306  
Since 1 July heating degree days 220 142  
Cooling Degree Days 8 1  
Month to date cooling degree days 40 46  
Year to date cooling degree days 167 169  
Since 1 June cooling degree days 164 160  
Growing Degree Days 23 (Base 50)    
Moisture  
Dew Point 65 °F    
Average Humidity 76    
Maximum Humidity 93    
Minimum Humidity 59    
Precipitation  
Precipitation 0.30 in 0.09 in 1.85 in (1950)
Month to date precipitation 2.42 2.16  
Year to date precipitation 23.80 16.31  
Snow  
Snow 0.00 in 0.00 in 0.00 in (2002)
Month to date snowfall 0.0 0.0  
Since 1 June snowfall 0.0 0.0  
Since 1 July snowfall 0.0 0.0  
Snow Depth 0.00 in    
Sea Level Pressure  
Sea Level Pressure 29.89 in    
Wind  
Wind Speed 7 mph (SSE)    
Max Wind Speed 40 mph    
Max Gust Speed 52 mph    
Visibility 9 miles    
Events Rain , Thunderstorm    
T = Trace of Precipitation, MM = Missing Value Source: NWS Daily Summary

Daily Weather History Graph

Daily Weather History Graph

Search for Another Location

Airport or City:

Trip Planner

Search our weather history database for the weather conditions in past years. The results will help you decide how hot, cold, wet, or windy it might be!

Date:

Astronomy

Aug. 24, 2013 Rise Set
Actual Time 6:19 AM CDT 8:10 PM CDT
Civil Twilight 5:46 AM CDT 8:44 PM CDT
Nautical Twilight 5:05 AM CDT 9:25 PM CDT
Astronomical Twilight 4:19 AM CDT 10:10 PM CDT
Moon 9:38 PM CDT (8/24) 10:45 AM CDT (8/24)
Length of Visible Light 14h 57m
Length of Day
13h 50m
Waning Gibbous, 84% of the Moon is Illuminated
Aug 24
Waning Gibbous
Aug 28
Last Quarter
Sep 5
New
Sep 12
First Quarter
Sep 19
Full

Hourly Weather History & Observations

Time (CDT) Temp. Heat Index Dew Point Humidity Pressure Visibility Wind Dir Wind Speed Gust Speed Precip Events Conditions
12:55 AM 64.0 °F - 55.0 °F 73% 30.01 in 10.0 mi SE 4.6 mph - N/A   Clear
1:55 AM 62.1 °F - 55.0 °F 78% 30.01 in 10.0 mi SE 6.9 mph - N/A   Clear
2:55 AM 62.1 °F - 54.0 °F 75% 30.01 in 10.0 mi SE 5.8 mph - N/A   Clear
3:55 AM 64.0 °F - 55.9 °F 75% 30.00 in 10.0 mi SE 8.1 mph - N/A   Mostly Cloudy
4:55 AM 64.9 °F - 57.9 °F 78% 29.99 in 10.0 mi Variable 4.6 mph - N/A   Scattered Clouds
5:55 AM 64.9 °F - 60.1 °F 84% 29.98 in 10.0 mi SSE 4.6 mph - N/A   Scattered Clouds
6:55 AM 66.0 °F - 62.1 °F 87% 29.97 in 10.0 mi Variable 4.6 mph - N/A   Mostly Cloudy
7:55 AM 69.1 °F - 64.0 °F 84% 29.96 in 10.0 mi Variable 6.9 mph - N/A   Clear
8:55 AM 71.1 °F - 66.0 °F 84% 29.94 in 10.0 mi Variable 6.9 mph - N/A   Scattered Clouds
9:55 AM 75.0 °F - 68.0 °F 79% 29.92 in 10.0 mi Variable 5.8 mph - N/A   Mostly Cloudy
10:55 AM 78.1 °F - 69.1 °F 74% 29.91 in 10.0 mi SE 11.5 mph 17.3 mph N/A   Clear
11:55 AM 82.0 °F 85.9 °F 70.0 °F 67% 29.90 in 10.0 mi Variable 5.8 mph - N/A   Clear
12:55 PM 84.0 °F 87.8 °F 69.1 °F 61% 29.87 in 10.0 mi South 9.2 mph 24.2 mph N/A   Clear
1:55 PM 86.0 °F 91.5 °F 71.1 °F 61% 29.86 in 10.0 mi South 9.2 mph 18.4 mph N/A   Scattered Clouds
2:55 PM 84.9 °F 88.2 °F 68.0 °F 57% 29.85 in 10.0 mi South 11.5 mph 25.3 mph N/A   Mostly Cloudy
3:55 PM 84.9 °F 88.2 °F 68.0 °F 57% 29.83 in 10.0 mi Variable 6.9 mph 25.3 mph N/A   Partly Cloudy
4:55 PM 84.9 °F 88.2 °F 68.0 °F 57% 29.81 in 10.0 mi Variable 6.9 mph 18.4 mph N/A   Scattered Clouds
5:55 PM 84.0 °F 87.0 °F 68.0 °F 58% 29.81 in 10.0 mi South 8.1 mph 16.1 mph N/A   Mostly Cloudy
6:55 PM 82.0 °F 85.5 °F 69.1 °F 65% 29.79 in 10.0 mi Variable 4.6 mph - N/A   Clear
7:55 PM 80.1 °F 82.9 °F 69.1 °F 69% 29.76 in 10.0 mi Variable 3.5 mph - N/A   Clear
8:55 PM 80.1 °F 82.9 °F 69.1 °F 69% 29.78 in 10.0 mi South 4.6 mph - N/A   Overcast
9:38 PM 80.6 °F 83.9 °F 69.8 °F 70% 29.91 in 10.0 mi NW 23.0 mph 31.1 mph N/A Thunderstorm Thunderstorm
9:48 PM 68.0 °F - 64.4 °F 88% 29.90 in 1.8 mi NNW 19.6 mph 51.8 mph 0.03 in Rain , Thunderstorm Heavy Thunderstorms and Rain
9:52 PM 66.2 °F - 64.4 °F 94% 29.88 in 1.2 mi NW 11.5 mph 28.8 mph 0.10 in Rain , Thunderstorm Heavy Thunderstorms and Rain
9:55 PM 66.9 °F - 64.0 °F 90% 29.87 in 1.2 mi WNW 10.4 mph 18.4 mph 0.18 in Rain , Thunderstorm Heavy Thunderstorms and Rain
10:03 PM 66.2 °F - 64.4 °F 94% 29.85 in 2.5 mi WNW 3.5 mph - 0.10 in Rain , Thunderstorm Rain
10:06 PM 66.2 °F - 64.4 °F 94% 29.84 in 6.0 mi Calm Calm - 0.11 in Rain Rain
10:55 PM 66.0 °F - 64.0 °F 93% 29.81 in 10.0 mi ESE 5.8 mph - 0.12 in   Clear
11:55 PM 66.0 °F - 64.9 °F 96% 29.81 in 10.0 mi ESE 4.6 mph - N/A   Scattered Clouds